Home   Weather   Alexandria   Past weeks

Flag for Egypt Past Weather in Alexandria, Egypt — Yesterday and Last 2 Weeks

Now
75 °F

Passing clouds.


Feels Like: 78 °F
Forecast: 76 / 82 °F
Wind: 10 mph from North

Location: Alexandria / Nouzha

Current Time: Sep 29, 2016 at 3:46:33 AM

Latest Report: Sep 29, 2016 at 2:00 AM


Visibility: N/A

Pressure: 30.09 "Hg

Humidity: 57%

Dew Point: 59 °F

Location of AlexandriaLocation

Past Weather in Alexandria — Graph

°F

Alexandria Temperature Yesterday

Maximum temperature yesterday: 82 °F (at 12:00 PM)
Minimum temperature yesterday: 72 °F (at 3:00 AM)
Average temperature yesterday: 78 °F

High & Low Weather Summary for the Past Weeks

 TemperatureHumidityPressure
High93 °F (Sep 20, 12:00 PM)83% (Sep 14, 4:00 AM)30.12 "Hg (Sep 14, 4:00 AM)
Low70 °F (Sep 14, 4:00 AM)33% (Sep 21, 10:00 AM)29.80 "Hg (Sep 14, 4:00 PM)
Average80 °F54%29.93 "Hg
* Reported Sep 14 2:00 AM — Sep 29 2:00 AM, Alexandria, Weather by CustomWeather, © 2016

Note: Actual official high and low records may vary slightly from our data, if they occured in-between our weather recording intervals... More about our weather records

Advertising

Alexandria Weather History for the Previous 24 Hours

Scroll right to see more
 ConditionsComfort  
Time TempWeatherWind HumidityBarometerVisibility
2:00 AM
Thu, Sep 29
75 °FPassing clouds.10 mph57%30.09 "HgN/A
1:00 AM75 °FPassing clouds.7 mph61%30.09 "HgN/A
12:00 AM75 °FPassing clouds.8 mph61%30.09 "HgN/A
11:00 PM
Wed, Sep 28
75 °FPassing clouds.10 mph61%30.09 "HgN/A
10:00 PM75 °FPassing clouds.9 mph61%30.12 "HgN/A
9:00 PM77 °FPassing clouds.12 mph57%30.12 "HgN/A
8:00 PM77 °FPassing clouds.13 mph57%30.09 "HgN/A
7:00 PM77 °FPassing clouds.14 mph57%30.09 "HgN/A
6:00 PM77 °FPassing clouds.13 mph54%30.07 "HgN/A
5:00 PM79 °FScattered clouds.14 mph51%30.07 "HgN/A
4:00 PM81 °FPassing clouds.15 mph48%30.07 "HgN/A
3:00 PM82 °FPassing clouds.15 mph45%30.07 "HgN/A
2:00 PM82 °FPassing clouds.16 mph42%30.07 "HgN/A
1:00 PM82 °FPassing clouds.14 mph45%30.09 "HgN/A
12:00 PM82 °FScattered clouds.9 mph45%30.09 "HgN/A
11:00 AM81 °FScattered clouds.14 mph45%30.09 "HgN/A
10:00 AM81 °FScattered clouds.14 mph45%30.09 "HgN/A
9:00 AM79 °FScattered clouds.10 mph58%30.09 "HgN/A
7:00 AM77 °FScattered clouds.9 mph54%30.04 "HgN/A
6:00 AM75 °FScattered clouds.12 mph54%30.04 "HgN/A
5:00 AM75 °FPassing clouds.10 mph57%30.04 "HgN/A
4:00 AM72 °FPassing clouds.13 mph57%30.01 "HgN/A
3:00 AM72 °FPassing clouds.9 mph57%30.04 "HgN/A
Weather by CustomWeather, © 2016

See weather overviewHow to use our weather pages